Location: Memphis
(29.8667°N, 31.2500°E)
Time: 07:57:16
(UTC+00:00)

Lacrosse 4 Rocket - Pass Details

Date: 03 March 2021
Orbit: 537 x 620 km, 68.0° (Epoch: 15 April)

Event Time Altitude Azimuth Distance (km) Brightness Sun altitude
Rises 17:29:28 0° 206° (SSW) 2,782 5.2 -21.1°
Reaches altitude 10° 17:31:40 10° 208° (SSW) 1,900 4.3 -21.6°
Maximum altitude 17:35:56 75° 294° (WNW) 621 1.6 -22.5°
Enters shadow 17:38:06 29° 14° (NNE) 1,107 2.7 -23.0°
